Time,TemperatureF,DewpointF,PressureIn,WindDirection,WindDirectionDegrees,WindSpeedMPH,WindSpeedGustMPH,Humidity,HourlyPrecipIn,Conditions,Clouds,dailyrainin,SoftwareType,DateUTC
2013-02-27 00:00:00,37.0,35.0,29.88,NNE,22,7.0,20.0,90,0.12,,,0.00,Rainwise IP-100,2013-02-27 05:00:00,
2013-02-27 00:05:00,37.0,35.0,29.88,East,90,12.0,18.0,91,0.18,,,0.02,Rainwise IP-100,2013-02-27 05:05:00,
2013-02-27 00:10:00,37.0,35.0,29.85,ESE,112,6.0,17.0,91,0.18,,,0.03,Rainwise IP-100,2013-02-27 05:10:00,
2013-02-27 00:15:00,37.0,35.0,29.85,ENE,67,8.0,23.0,90,0.18,,,0.05,Rainwise IP-100,2013-02-27 05:15:00,
2013-02-27 00:20:00,38.0,35.0,29.86,ENE,67,10.0,17.0,88,0.12,,,0.05,Rainwise IP-100,2013-02-27 05:20:00,
2013-02-27 00:25:00,38.0,35.0,29.86,East,90,7.0,15.0,89,0.06,,,0.06,Rainwise IP-100,2013-02-27 05:25:00,
2013-02-27 00:30:00,38.0,35.0,29.85,SE,135,7.0,17.0,88,0.12,,,0.07,Rainwise IP-100,2013-02-27 05:30:00,
2013-02-27 00:35:00,38.0,35.0,29.85,ENE,67,6.0,27.0,88,0.06,,,0.07,Rainwise IP-100,2013-02-27 05:35:00,
2013-02-27 00:40:00,38.0,35.0,29.84,North,360,3.0,18.0,88,0.06,,,0.08,Rainwise IP-100,2013-02-27 05:40:00,
2013-02-27 00:45:00,38.0,35.0,29.84,ENE,67,10.0,22.0,88,0.12,,,0.09,Rainwise IP-100,2013-02-27 05:45:00,
2013-02-27 00:50:00,38.0,35.0,29.83,NE,45,5.0,16.0,88,0.06,,,0.09,Rainwise IP-100,2013-02-27 05:50:00,
2013-02-27 00:55:00,38.0,35.0,29.83,ENE,67,7.0,17.0,88,0.06,,,0.10,Rainwise IP-100,2013-02-27 05:55:00,
2013-02-27 01:00:00,38.0,35.0,29.82,NE,45,13.0,19.0,88,0.12,,,0.11,Rainwise IP-100,2013-02-27 06:00:00,
2013-02-27 01:05:00,38.0,35.0,29.82,NE,45,7.0,22.0,88,0.06,,,0.11,Rainwise IP-100,2013-02-27 06:05:00,
2013-02-27 01:10:00,39.0,36.0,29.80,North,360,13.0,23.0,88,0.06,,,0.12,Rainwise IP-100,2013-02-27 06:10:00,
2013-02-27 01:15:00,39.0,36.0,29.80,NE,45,8.0,20.0,88,0.06,,,0.12,Rainwise IP-100,2013-02-27 06:15:00,
2013-02-27 01:20:00,39.0,36.0,29.80,East,90,15.0,25.0,88,0.06,,,0.13,Rainwise IP-100,2013-02-27 06:20:00,
2013-02-27 01:25:00,39.0,36.0,29.80,East,90,18.0,21.0,87,0.06,,,0.13,Rainwise IP-100,2013-02-27 06:25:00,
2013-02-27 01:30:00,39.0,36.0,29.79,ENE,67,6.0,18.0,88,0.00,,,0.13,Rainwise IP-100,2013-02-27 06:30:00,
2013-02-27 01:35:00,39.0,36.0,29.79,ENE,67,9.0,23.0,88,0.06,,,0.14,Rainwise IP-100,2013-02-27 06:35:00,
2013-02-27 01:40:00,39.0,36.0,29.78,ENE,67,10.0,22.0,87,0.06,,,0.14,Rainwise IP-100,2013-02-27 06:40:00,
2013-02-27 01:45:00,39.0,36.0,29.78,East,90,8.0,21.0,87,0.00,,,0.14,Rainwise IP-100,2013-02-27 06:45:00,
2013-02-27 01:50:00,39.0,36.0,29.77,NE,45,6.0,21.0,88,0.06,,,0.15,Rainwise IP-100,2013-02-27 06:50:00,
2013-02-27 01:55:00,39.0,36.0,29.77,East,90,9.0,22.0,87,0.06,,,0.15,Rainwise IP-100,2013-02-27 06:55:00,
2013-02-27 02:00:00,39.0,36.0,29.75,North,360,6.0,17.0,88,0.00,,,0.15,Rainwise IP-100,2013-02-27 07:00:00,
2013-02-27 02:05:00,39.0,36.0,29.75,NE,45,15.0,16.0,88,0.06,,,0.16,Rainwise IP-100,2013-02-27 07:05:00,
2013-02-27 02:10:00,39.0,36.0,29.74,ENE,67,3.0,20.0,88,0.06,,,0.16,Rainwise IP-100,2013-02-27 07:10:00,
2013-02-27 02:15:00,39.0,36.0,29.74,North,360,6.0,16.0,88,0.12,,,0.18,Rainwise IP-100,2013-02-27 07:15:00,
2013-02-27 02:20:00,39.0,36.0,29.75,NNE,22,10.0,17.0,89,0.18,,,0.19,Rainwise IP-100,2013-02-27 07:20:00,
2013-02-27 02:25:00,39.0,36.0,29.75,NW,315,8.0,22.0,89,0.06,,,0.19,Rainwise IP-100,2013-02-27 07:25:00,
2013-02-27 02:27:00,39.0,36.0,29.75,North,360,4.0,19.0,89,0.06,,,0.19,Rainwise IP-100,2013-02-27 07:27:00,
2013-02-27 02:32:00,39.0,36.0,29.74,North,360,9.0,16.0,89,0.00,,,0.19,Rainwise IP-100,2013-02-27 07:32:00,
2013-02-27 02:37:00,39.0,36.0,29.74,South,180,2.0,20.0,89,0.06,,,0.20,Rainwise IP-100,2013-02-27 07:37:00,
2013-02-27 02:42:00,38.0,36.0,29.73,East,90,7.0,14.0,90,0.12,,,0.21,Rainwise IP-100,2013-02-27 07:42:00,
2013-02-27 02:47:00,38.0,36.0,29.73,East,90,3.0,17.0,90,0.12,,,0.22,Rainwise IP-100,2013-02-27 07:47:00,
2013-02-27 02:52:00,38.0,36.0,29.73,NE,45,5.0,15.0,90,0.06,,,0.22,Rainwise IP-100,2013-02-27 07:52:00,
2013-02-27 02:57:00,38.0,36.0,29.73,NNE,22,9.0,15.0,91,0.00,,,0.23,Rainwise IP-100,2013-02-27 07:57:00,
2013-02-27 03:01:00,38.0,36.0,29.72,North,360,7.0,17.0,91,0.06,,,0.23,Rainwise IP-100,2013-02-27 08:01:00,
2013-02-27 03:06:00,38.0,36.0,29.72,ESE,112,6.0,17.0,91,0.06,,,0.23,Rainwise IP-100,2013-02-27 08:06:00,
2013-02-27 03:11:00,38.0,36.0,29.72,NNE,22,8.0,16.0,91,0.00,,,0.23,Rainwise IP-100,2013-02-27 08:11:00,
2013-02-27 03:16:00,38.0,36.0,29.72,NNE,22,9.0,15.0,91,0.06,,,0.24,Rainwise IP-100,2013-02-27 08:16:00,
2013-02-27 03:21:00,38.0,36.0,29.71,North,360,10.0,19.0,91,0.12,,,0.25,Rainwise IP-100,2013-02-27 08:21:00,
2013-02-27 03:26:00,38.0,36.0,29.71,NE,45,10.0,20.0,91,0.06,,,0.25,Rainwise IP-100,2013-02-27 08:26:00,
2013-02-27 03:31:00,38.0,36.0,29.70,East,90,7.0,13.0,91,0.00,,,0.25,Rainwise IP-100,2013-02-27 08:31:00,
2013-02-27 03:36:00,38.0,36.0,29.70,NE,45,7.0,17.0,91,0.00,,,0.26,Rainwise IP-100,2013-02-27 08:36:00,
2013-02-27 03:41:00,38.0,36.0,29.70,North,360,6.0,15.0,91,0.06,,,0.27,Rainwise IP-100,2013-02-27 08:41:00,
2013-02-27 03:46:00,38.0,36.0,29.70,North,360,10.0,16.0,91,0.12,,,0.27,Rainwise IP-100,2013-02-27 08:46:00,
2013-02-27 03:51:00,38.0,36.0,29.69,NE,45,4.0,14.0,91,0.06,,,0.27,Rainwise IP-100,2013-02-27 08:51:00,
2013-02-27 03:56:00,38.0,36.0,29.69,NNW,337,7.0,17.0,91,0.00,,,0.27,Rainwise IP-100,2013-02-27 08:56:00,
2013-02-27 04:00:00,38.0,36.0,29.69,NW,315,10.0,18.0,91,0.00,,,0.27,Rainwise IP-100,2013-02-27 09:00:00,
2013-02-27 04:05:00,38.0,36.0,29.69,North,360,7.0,18.0,91,0.06,,,0.28,Rainwise IP-100,2013-02-27 09:05:00,
2013-02-27 04:10:00,38.0,36.0,29.68,NNE,22,9.0,16.0,91,0.06,,,0.28,Rainwise IP-100,2013-02-27 09:10:00,
2013-02-27 04:15:00,38.0,36.0,29.68,NE,45,7.0,19.0,91,0.00,,,0.29,Rainwise IP-100,2013-02-27 09:15:00,
2013-02-27 04:20:00,38.0,36.0,29.68,NE,45,9.0,15.0,91,0.12,,,0.30,Rainwise IP-100,2013-02-27 09:20:00,
2013-02-27 04:25:00,38.0,36.0,29.68,NNE,22,6.0,16.0,91,0.12,,,0.30,Rainwise IP-100,2013-02-27 09:25:00,
2013-02-27 04:30:00,38.0,36.0,29.67,ENE,67,7.0,17.0,91,0.06,,,0.31,Rainwise IP-100,2013-02-27 09:30:00,
2013-02-27 04:35:00,38.0,36.0,29.67,ENE,67,6.0,16.0,91,0.06,,,0.31,Rainwise IP-100,2013-02-27 09:35:00,
2013-02-27 04:40:00,38.0,36.0,29.66,North,360,6.0,20.0,91,0.00,,,0.31,Rainwise IP-100,2013-02-27 09:40:00,
2013-02-27 04:45:00,38.0,36.0,29.66,East,90,9.0,16.0,91,0.00,,,0.31,Rainwise IP-100,2013-02-27 09:45:00,
2013-02-27 04:50:00,38.0,36.0,29.65,East,90,12.0,13.0,91,0.00,,,0.31,Rainwise IP-100,2013-02-27 09:50:00,
2013-02-27 04:55:00,38.0,36.0,29.65,NE,45,10.0,16.0,91,0.06,,,0.32,Rainwise IP-100,2013-02-27 09:55:00,
2013-02-27 05:00:00,38.0,36.0,29.64,NNE,22,12.0,17.0,91,0.06,,,0.33,Rainwise IP-100,2013-02-27 10:00:00,
2013-02-27 05:05:00,38.0,36.0,29.64,NNE,22,6.0,20.0,91,0.06,,,0.33,Rainwise IP-100,2013-02-27 10:05:00,
2013-02-27 05:10:00,38.0,36.0,29.64,NNE,22,2.0,14.0,91,0.06,,,0.33,Rainwise IP-100,2013-02-27 10:10:00,
2013-02-27 05:15:00,38.0,36.0,29.64,ESE,112,6.0,14.0,91,0.00,,,0.33,Rainwise IP-100,2013-02-27 10:15:00,
2013-02-27 05:20:00,38.0,36.0,29.63,ENE,67,5.0,13.0,91,0.00,,,0.33,Rainwise IP-100,2013-02-27 10:20:00,
2013-02-27 05:25:00,38.0,36.0,29.63,ENE,67,6.0,13.0,91,0.00,,,0.34,Rainwise IP-100,2013-02-27 10:25:00,
2013-02-27 05:30:00,38.0,36.0,29.63,ENE,67,9.0,15.0,91,0.06,,,0.34,Rainwise IP-100,2013-02-27 10:30:00,
2013-02-27 05:35:00,38.0,36.0,29.63,North,360,10.0,13.0,91,0.06,,,0.34,Rainwise IP-100,2013-02-27 10:35:00,
2013-02-27 05:40:00,38.0,36.0,29.64,NE,45,7.0,10.0,91,0.00,,,0.34,Rainwise IP-100,2013-02-27 10:40:00,
2013-02-27 05:45:00,39.0,37.0,29.64,NNE,22,8.0,16.0,90,0.06,,,0.35,Rainwise IP-100,2013-02-27 10:45:00,
2013-02-27 05:50:00,39.0,37.0,29.63,North,360,6.0,15.0,90,0.06,,,0.35,Rainwise IP-100,2013-02-27 10:50:00,
2013-02-27 05:55:00,39.0,37.0,29.63,North,360,4.0,17.0,91,0.00,,,0.36,Rainwise IP-100,2013-02-27 10:55:00,
2013-02-27 06:00:00,39.0,37.0,29.62,North,360,10.0,17.0,91,0.06,,,0.36,Rainwise IP-100,2013-02-27 11:00:00,
2013-02-27 06:05:00,39.0,37.0,29.62,NW,315,4.0,19.0,91,0.12,,,0.37,Rainwise IP-100,2013-02-27 11:05:00,
2013-02-27 06:10:00,39.0,37.0,29.61,North,360,1.0,16.0,91,0.06,,,0.37,Rainwise IP-100,2013-02-27 11:10:00,
2013-02-27 06:15:00,39.0,37.0,29.61,NE,45,11.0,12.0,92,0.06,,,0.38,Rainwise IP-100,2013-02-27 11:15:00,
2013-02-27 06:20:00,39.0,37.0,29.62,North,360,1.0,13.0,91,0.06,,,0.38,Rainwise IP-100,2013-02-27 11:20:00,
2013-02-27 06:25:00,39.0,37.0,29.62,NE,45,6.0,12.0,92,0.06,,,0.39,Rainwise IP-100,2013-02-27 11:25:00,
2013-02-27 06:30:00,39.0,37.0,29.60,NE,45,7.0,12.0,92,0.06,,,0.39,Rainwise IP-100,2013-02-27 11:30:00,
2013-02-27 06:35:00,39.0,37.0,29.60,NE,45,7.0,11.0,92,0.00,,,0.39,Rainwise IP-100,2013-02-27 11:35:00,
2013-02-27 06:40:00,40.0,38.0,29.58,North,360,4.0,14.0,92,0.00,,,0.39,Rainwise IP-100,2013-02-27 11:40:00,
2013-02-27 06:45:00,40.0,38.0,29.58,SE,135,2.0,15.0,92,0.00,,,0.39,Rainwise IP-100,2013-02-27 11:45:00,
2013-02-27 06:50:00,40.0,38.0,29.58,NNE,22,9.0,15.0,92,0.00,,,0.39,Rainwise IP-100,2013-02-27 11:50:00,
2013-02-27 06:55:00,40.0,38.0,29.58,NNE,22,10.0,15.0,92,0.00,,,0.39,Rainwise IP-100,2013-02-27 11:55:00,
2013-02-27 07:00:00,40.0,38.0,29.56,NNE,22,13.0,15.0,92,0.00,,,0.39,Rainwise IP-100,2013-02-27 12:00:00,
2013-02-27 07:05:00,40.0,38.0,29.56,East,90,3.0,15.0,92,0.00,,,0.39,Rainwise IP-100,2013-02-27 12:05:00,
2013-02-27 07:10:00,40.0,38.0,29.56,ENE,67,6.0,12.0,92,0.00,,,0.39,Rainwise IP-100,2013-02-27 12:10:00,
2013-02-27 07:15:00,40.0,38.0,29.56,NNW,337,7.0,13.0,92,0.00,,,0.39,Rainwise IP-100,2013-02-27 12:15:00,
2013-02-27 07:20:00,40.0,38.0,29.56,East,90,6.0,14.0,92,0.00,,,0.39,Rainwise IP-100,2013-02-27 12:20:00,
2013-02-27 07:25:00,41.0,39.0,29.56,NNE,22,7.0,16.0,92,0.00,,,0.39,Rainwise IP-100,2013-02-27 12:25:00,
2013-02-27 07:30:00,41.0,39.0,29.56,NNE,22,8.0,10.0,92,0.06,,,0.40,Rainwise IP-100,2013-02-27 12:30:00,
2013-02-27 07:35:00,41.0,39.0,29.56,NNE,22,9.0,13.0,92,0.06,,,0.40,Rainwise IP-100,2013-02-27 12:35:00,
2013-02-27 07:40:00,41.0,39.0,29.55,North,360,7.0,13.0,91,0.00,,,0.40,Rainwise IP-100,2013-02-27 12:40:00,
2013-02-27 07:45:00,41.0,39.0,29.55,East,90,10.0,12.0,92,0.00,,,0.40,Rainwise IP-100,2013-02-27 12:45:00,
2013-02-27 07:50:00,41.0,39.0,29.54,NE,45,10.0,15.0,91,0.00,,,0.40,Rainwise IP-100,2013-02-27 12:50:00,
2013-02-27 07:55:00,41.0,39.0,29.54,ENE,67,8.0,12.0,92,0.00,,,0.40,Rainwise IP-100,2013-02-27 12:55:00,
2013-02-27 08:00:00,41.0,39.0,29.53,NE,45,9.0,14.0,91,0.00,,,0.40,Rainwise IP-100,2013-02-27 13:00:00,
2013-02-27 08:05:00,42.0,40.0,29.53,North,360,7.0,10.0,92,0.06,,,0.41,Rainwise IP-100,2013-02-27 13:05:00,
2013-02-27 08:10:00,42.0,40.0,29.53,North,360,6.0,16.0,91,0.06,,,0.41,Rainwise IP-100,2013-02-27 13:10:00,
2013-02-27 08:15:00,42.0,40.0,29.53,North,360,9.0,13.0,91,0.00,,,0.41,Rainwise IP-100,2013-02-27 13:15:00,
2013-02-27 08:20:00,42.0,40.0,29.53,North,360,6.0,14.0,91,0.00,,,0.41,Rainwise IP-100,2013-02-27 13:20:00,
2013-02-27 08:25:00,42.0,40.0,29.53,North,360,2.0,15.0,91,0.00,,,0.41,Rainwise IP-100,2013-02-27 13:25:00,
2013-02-27 08:30:00,42.0,40.0,29.52,NW,315,5.0,14.0,91,0.00,,,0.41,Rainwise IP-100,2013-02-27 13:30:00,
2013-02-27 08:35:00,42.0,40.0,29.52,NE,45,5.0,16.0,92,0.00,,,0.41,Rainwise IP-100,2013-02-27 13:35:00,
2013-02-27 08:40:00,43.0,41.0,29.52,North,360,6.0,15.0,93,0.00,,,0.41,Rainwise IP-100,2013-02-27 13:40:00,
2013-02-27 08:45:00,43.0,41.0,29.52,East,90,6.0,12.0,92,0.00,,,0.41,Rainwise IP-100,2013-02-27 13:45:00,
2013-02-27 08:50:00,43.0,41.0,29.51,North,360,7.0,15.0,92,0.00,,,0.41,Rainwise IP-100,2013-02-27 13:50:00,
2013-02-27 08:55:00,43.0,41.0,29.51,ENE,67,11.0,14.0,92,0.00,,,0.41,Rainwise IP-100,2013-02-27 13:55:00,
2013-02-27 09:00:00,43.0,41.0,29.51,NNE,22,7.0,16.0,92,0.00,,,0.41,Rainwise IP-100,2013-02-27 14:00:00,
2013-02-27 09:05:00,43.0,41.0,29.51,North,360,3.0,13.0,92,0.00,,,0.41,Rainwise IP-100,2013-02-27 14:05:00,
2013-02-27 09:10:00,43.0,41.0,29.52,North,360,6.0,8.0,92,0.00,,,0.41,Rainwise IP-100,2013-02-27 14:10:00,
2013-02-27 09:15:00,43.0,41.0,29.52,NNE,22,6.0,10.0,93,0.00,,,0.41,Rainwise IP-100,2013-02-27 14:15:00,
2013-02-27 09:20:00,43.0,41.0,29.52,North,360,6.0,8.0,92,0.00,,,0.41,Rainwise IP-100,2013-02-27 14:20:00,
2013-02-27 09:25:00,43.0,41.0,29.52,NNE,22,4.0,10.0,92,0.00,,,0.41,Rainwise IP-100,2013-02-27 14:25:00,
2013-02-27 09:30:00,43.0,40.0,29.52,NW,315,6.0,11.0,91,0.06,,,0.42,Rainwise IP-100,2013-02-27 14:30:00,
2013-02-27 09:35:00,43.0,41.0,29.52,NNW,337,7.0,9.0,92,0.06,,,0.42,Rainwise IP-100,2013-02-27 14:35:00,
2013-02-27 09:40:00,44.0,42.0,29.52,North,360,4.0,10.0,92,0.00,,,0.42,Rainwise IP-100,2013-02-27 14:40:00,
2013-02-27 09:45:00,44.0,41.0,29.52,NW,315,6.0,7.0,91,0.06,,,0.43,Rainwise IP-100,2013-02-27 14:45:00,
2013-02-27 09:50:00,44.0,41.0,29.52,NNE,22,2.0,7.0,91,0.06,,,0.43,Rainwise IP-100,2013-02-27 14:50:00,
2013-02-27 09:55:00,44.0,41.0,29.52,NNW,337,5.0,9.0,91,0.00,,,0.43,Rainwise IP-100,2013-02-27 14:55:00,
2013-02-27 10:00:00,44.0,41.0,29.51,North,360,3.0,7.0,91,0.00,,,0.43,Rainwise IP-100,2013-02-27 15:00:00,
2013-02-27 10:05:00,44.0,41.0,29.51,North,360,5.0,7.0,91,0.00,,,0.43,Rainwise IP-100,2013-02-27 15:05:00,
2013-02-27 10:10:00,44.0,41.0,29.52,North,360,6.0,7.0,91,0.00,,,0.43,Rainwise IP-100,2013-02-27 15:10:00,
2013-02-27 10:15:00,44.0,42.0,29.52,NW,315,6.0,7.0,92,0.06,,,0.44,Rainwise IP-100,2013-02-27 15:15:00,
2013-02-27 10:20:00,44.0,41.0,29.51,NNW,337,7.0,7.0,91,0.06,,,0.44,Rainwise IP-100,2013-02-27 15:20:00,
2013-02-27 10:25:00,44.0,42.0,29.51,East,90,6.0,9.0,92,0.00,,,0.44,Rainwise IP-100,2013-02-27 15:25:00,
2013-02-27 10:30:00,44.0,42.0,29.50,East,90,5.0,10.0,92,0.00,,,0.44,Rainwise IP-100,2013-02-27 15:30:00,
2013-02-27 10:35:00,44.0,41.0,29.50,North,360,5.0,7.0,91,0.00,,,0.44,Rainwise IP-100,2013-02-27 15:35:00,
2013-02-27 10:40:00,45.0,42.0,29.49,East,90,4.0,14.0,91,0.06,,,0.45,Rainwise IP-100,2013-02-27 15:40:00,
2013-02-27 10:45:00,45.0,42.0,29.49,NNE,22,4.0,16.0,90,0.06,,,0.45,Rainwise IP-100,2013-02-27 15:45:00,
2013-02-27 10:50:00,45.0,42.0,29.50,SE,135,0.0,12.0,89,0.00,,,0.45,Rainwise IP-100,2013-02-27 15:50:00,
2013-02-27 10:55:00,45.0,42.0,29.50,SE,135,3.0,10.0,90,0.00,,,0.45,Rainwise IP-100,2013-02-27 15:55:00,
2013-02-27 11:00:00,45.0,42.0,29.50,North,360,6.0,7.0,90,0.00,,,0.45,Rainwise IP-100,2013-02-27 16:00:00,
2013-02-27 11:05:00,45.0,42.0,29.50,South,180,2.0,7.0,89,0.00,,,0.45,Rainwise IP-100,2013-02-27 16:05:00,
2013-02-27 11:10:00,45.0,42.0,29.50,North,360,3.0,8.0,89,0.00,,,0.45,Rainwise IP-100,2013-02-27 16:10:00,
2013-02-27 11:15:00,45.0,41.0,29.50,NNW,337,4.0,7.0,88,0.00,,,0.45,Rainwise IP-100,2013-02-27 16:15:00,
2013-02-27 11:20:00,46.0,42.0,29.50,NE,45,0.0,5.0,87,0.00,,,0.45,Rainwise IP-100,2013-02-27 16:20:00,
2013-02-27 11:25:00,45.0,41.0,29.50,NE,45,3.0,7.0,87,0.00,,,0.45,Rainwise IP-100,2013-02-27 16:25:00,
2013-02-27 11:30:00,45.0,41.0,29.50,NNE,22,7.0,7.0,86,0.00,,,0.45,Rainwise IP-100,2013-02-27 16:30:00,
2013-02-27 11:35:00,45.0,41.0,29.50,NW,315,2.0,8.0,86,0.00,,,0.45,Rainwise IP-100,2013-02-27 16:35:00,
2013-02-27 11:40:00,45.0,41.0,29.50,North,360,2.0,6.0,85,0.00,,,0.45,Rainwise IP-100,2013-02-27 16:40:00,
2013-02-27 11:45:00,46.0,42.0,29.50,North,360,0.0,4.0,86,0.00,,,0.45,Rainwise IP-100,2013-02-27 16:45:00,
2013-02-27 11:50:00,46.0,42.0,29.49,North,360,2.0,6.0,86,0.00,,,0.45,Rainwise IP-100,2013-02-27 16:50:00,
2013-02-27 11:55:00,46.0,42.0,29.49,NNE,22,0.0,5.0,86,0.00,,,0.45,Rainwise IP-100,2013-02-27 16:55:00,
2013-02-27 12:00:00,46.0,42.0,29.49,WNW,292,4.0,5.0,86,0.00,,,0.45,Rainwise IP-100,2013-02-27 17:00:00,
2013-02-27 12:05:00,46.0,41.0,29.49,NNW,337,3.0,4.0,85,0.00,,,0.45,Rainwise IP-100,2013-02-27 17:05:00,
2013-02-27 12:10:00,46.0,41.0,29.49,North,360,0.0,5.0,84,0.00,,,0.45,Rainwise IP-100,2013-02-27 17:10:00,
2013-02-27 12:15:00,46.0,41.0,29.49,North,360,0.0,1.0,85,0.00,,,0.45,Rainwise IP-100,2013-02-27 17:15:00,
2013-02-27 12:20:00,47.0,43.0,29.49,NNW,337,0.0,1.0,86,0.00,,,0.45,Rainwise IP-100,2013-02-27 17:20:00,
2013-02-27 12:25:00,46.0,41.0,29.49,WSW,247,2.0,6.0,84,0.00,,,0.45,Rainwise IP-100,2013-02-27 17:25:00,
2013-02-27 12:30:00,46.0,41.0,29.50,NW,315,0.0,4.0,85,0.00,,,0.45,Rainwise IP-100,2013-02-27 17:30:00,
2013-02-27 12:35:00,47.0,42.0,29.50,NNW,337,1.0,5.0,84,0.00,,,0.45,Rainwise IP-100,2013-02-27 17:35:00,
2013-02-27 12:40:00,47.0,41.0,29.49,NNW,337,4.0,4.0,82,0.00,,,0.45,Rainwise IP-100,2013-02-27 17:40:00,
2013-02-27 12:45:00,47.0,41.0,29.49,WNW,292,1.0,5.0,82,0.00,,,0.45,Rainwise IP-100,2013-02-27 17:45:00,
2013-02-27 12:50:00,47.0,41.0,29.49,NNW,337,2.0,5.0,82,0.00,,,0.45,Rainwise IP-100,2013-02-27 17:50:00,
2013-02-27 12:55:00,47.0,41.0,29.49,NNW,337,0.0,3.0,82,0.00,,,0.45,Rainwise IP-100,2013-02-27 17:55:00,
2013-02-27 13:00:00,47.0,41.0,29.50,West,270,4.0,7.0,80,0.00,,,0.45,Rainwise IP-100,2013-02-27 18:00:00,
2013-02-27 13:05:00,48.0,43.0,29.50,WNW,292,5.0,6.0,82,0.00,,,0.45,Rainwise IP-100,2013-02-27 18:05:00,
2013-02-27 13:10:00,49.0,44.0,29.49,WNW,292,4.0,6.0,82,0.00,,,0.45,Rainwise IP-100,2013-02-27 18:10:00,
2013-02-27 13:15:00,49.0,42.0,29.49,NNE,22,5.0,6.0,78,0.00,,,0.45,Rainwise IP-100,2013-02-27 18:15:00,
2013-02-27 13:20:00,48.0,42.0,29.49,South,180,4.0,6.0,78,0.00,,,0.45,Rainwise IP-100,2013-02-27 18:20:00,
2013-02-27 13:25:00,47.0,40.0,29.49,West,270,6.0,7.0,78,0.00,,,0.45,Rainwise IP-100,2013-02-27 18:25:00,
2013-02-27 13:30:00,47.0,40.0,29.50,NW,315,3.0,9.0,79,0.00,,,0.45,Rainwise IP-100,2013-02-27 18:30:00,
2013-02-27 13:35:00,47.0,40.0,29.50,SW,225,1.0,6.0,78,0.00,,,0.45,Rainwise IP-100,2013-02-27 18:35:00,
2013-02-27 13:40:00,49.0,42.0,29.50,West,270,2.0,8.0,78,0.00,,,0.45,Rainwise IP-100,2013-02-27 18:40:00,
2013-02-27 13:46:00,49.0,45.0,29.50,North,360,5.0,6.0,85,0.00,,,0.45,Rainwise IP-100,2013-02-27 18:46:00,
2013-02-27 13:51:00,50.0,46.0,29.49,WNW,292,4.0,7.0,87,0.00,,,0.45,Rainwise IP-100,2013-02-27 18:51:00,
2013-02-27 13:56:00,50.0,46.0,29.49,SW,225,5.0,5.0,85,0.00,,,0.45,Rainwise IP-100,2013-02-27 18:56:00,
2013-02-27 14:01:00,49.0,44.0,29.50,North,360,1.0,9.0,84,0.00,,,0.45,Rainwise IP-100,2013-02-27 19:01:00,
2013-02-27 14:06:00,49.0,45.0,29.50,SW,225,1.0,7.0,87,0.00,,,0.45,Rainwise IP-100,2013-02-27 19:06:00,
2013-02-27 14:11:00,49.0,45.0,29.50,West,270,1.0,4.0,87,0.00,,,0.45,Rainwise IP-100,2013-02-27 19:11:00,
2013-02-27 14:16:00,49.0,44.0,29.50,NW,315,1.0,9.0,83,0.00,,,0.45,Rainwise IP-100,2013-02-27 19:16:00,
2013-02-27 14:21:00,49.0,45.0,29.50,WNW,292,5.0,7.0,87,0.00,,,0.45,Rainwise IP-100,2013-02-27 19:21:00,
2013-02-27 14:26:00,49.0,46.0,29.50,SW,225,4.0,6.0,88,0.00,,,0.45,Rainwise IP-100,2013-02-27 19:26:00,
2013-02-27 14:31:00,49.0,46.0,29.52,WNW,292,5.0,10.0,89,0.00,,,0.45,Rainwise IP-100,2013-02-27 19:31:00,
2013-02-27 14:36:00,49.0,46.0,29.52,NW,315,3.0,8.0,89,0.00,,,0.45,Rainwise IP-100,2013-02-27 19:36:00,
2013-02-27 14:41:00,49.0,47.0,29.52,SW,225,5.0,10.0,90,0.00,,,0.45,Rainwise IP-100,2013-02-27 19:41:00,
2013-02-27 14:46:00,49.0,47.0,29.52,SW,225,7.0,8.0,92,0.00,,,0.45,Rainwise IP-100,2013-02-27 19:46:00,
2013-02-27 14:51:00,49.0,47.0,29.52,SW,225,5.0,9.0,90,0.00,,,0.45,Rainwise IP-100,2013-02-27 19:51:00,
2013-02-27 14:56:00,49.0,47.0,29.52,SE,135,1.0,11.0,90,0.00,,,0.45,Rainwise IP-100,2013-02-27 19:56:00,
2013-02-27 15:01:00,50.0,47.0,29.53,SW,225,7.0,9.0,90,0.00,,,0.45,Rainwise IP-100,2013-02-27 20:01:00,
2013-02-27 15:06:00,50.0,47.0,29.53,West,270,5.0,13.0,89,0.00,,,0.45,Rainwise IP-100,2013-02-27 20:06:00,
2013-02-27 15:11:00,50.0,47.0,29.52,SW,225,2.0,10.0,90,0.00,,,0.45,Rainwise IP-100,2013-02-27 20:11:00,
2013-02-27 15:16:00,49.0,46.0,29.52,West,270,4.0,9.0,89,0.00,,,0.45,Rainwise IP-100,2013-02-27 20:16:00,
2013-02-27 15:21:00,49.0,47.0,29.53,SW,225,6.0,8.0,90,0.00,,,0.45,Rainwise IP-100,2013-02-27 20:21:00,
2013-02-27 15:26:00,49.0,46.0,29.53,SW,225,5.0,7.0,89,0.00,,,0.45,Rainwise IP-100,2013-02-27 20:26:00,
2013-02-27 15:31:00,49.0,46.0,29.54,NW,315,5.0,7.0,89,0.00,,,0.45,Rainwise IP-100,2013-02-27 20:31:00,
2013-02-27 15:36:00,49.0,47.0,29.54,West,270,2.0,9.0,90,0.00,,,0.45,Rainwise IP-100,2013-02-27 20:36:00,
2013-02-27 15:41:00,48.0,45.0,29.55,SW,225,10.0,10.0,89,0.00,,,0.45,Rainwise IP-100,2013-02-27 20:41:00,
2013-02-27 15:46:00,48.0,46.0,29.55,SW,225,6.0,12.0,90,0.00,,,0.45,Rainwise IP-100,2013-02-27 20:46:00,
2013-02-27 15:51:00,48.0,46.0,29.56,SW,225,7.0,10.0,90,0.00,,,0.45,Rainwise IP-100,2013-02-27 20:51:00,
2013-02-27 15:56:00,47.0,43.0,29.56,SW,225,6.0,11.0,89,0.00,,,0.45,Rainwise IP-100,2013-02-27 20:56:00,
2013-02-27 16:01:00,48.0,46.0,29.56,SSW,202,5.0,15.0,90,0.00,,,0.45,Rainwise IP-100,2013-02-27 21:01:00,
2013-02-27 16:06:00,49.0,46.0,29.56,WSW,247,7.0,11.0,88,0.00,,,0.45,Rainwise IP-100,2013-02-27 21:06:00,
2013-02-27 16:11:00,49.0,46.0,29.56,West,270,4.0,7.0,88,0.00,,,0.45,Rainwise IP-100,2013-02-27 21:11:00,
2013-02-27 16:16:00,48.0,45.0,29.56,SSW,202,1.0,13.0,89,0.00,,,0.45,Rainwise IP-100,2013-02-27 21:16:00,
2013-02-27 16:21:00,47.0,43.0,29.56,WSW,247,5.0,8.0,88,0.00,,,0.45,Rainwise IP-100,2013-02-27 21:21:00,
2013-02-27 16:26:00,47.0,43.0,29.56,NW,315,1.0,9.0,88,0.00,,,0.45,Rainwise IP-100,2013-02-27 21:26:00,
2013-02-27 16:31:00,47.0,43.0,29.57,NW,315,2.0,6.0,88,0.00,,,0.45,Rainwise IP-100,2013-02-27 21:31:00,
2013-02-27 16:36:00,48.0,45.0,29.57,SW,225,2.0,9.0,89,0.00,,,0.45,Rainwise IP-100,2013-02-27 21:36:00,
2013-02-27 16:41:00,47.0,43.0,29.57,SW,225,1.0,6.0,88,0.00,,,0.45,Rainwise IP-100,2013-02-27 21:41:00,
2013-02-27 16:46:00,47.0,43.0,29.57,WSW,247,4.0,6.0,88,0.00,,,0.45,Rainwise IP-100,2013-02-27 21:46:00,
2013-02-27 16:51:00,47.0,43.0,29.58,WSW,247,3.0,6.0,87,0.00,,,0.45,Rainwise IP-100,2013-02-27 21:51:00,
2013-02-27 16:56:00,47.0,43.0,29.58,SW,225,4.0,8.0,89,0.00,,,0.45,Rainwise IP-100,2013-02-27 21:56:00,
2013-02-27 17:01:00,47.0,43.0,29.58,WSW,247,2.0,7.0,88,0.00,,,0.45,Rainwise IP-100,2013-02-27 22:01:00,
2013-02-27 17:06:00,47.0,43.0,29.58,WSW,247,2.0,6.0,89,0.00,,,0.45,Rainwise IP-100,2013-02-27 22:06:00,
2013-02-27 17:11:00,47.0,43.0,29.58,West,270,4.0,7.0,89,0.00,,,0.45,Rainwise IP-100,2013-02-27 22:11:00,
2013-02-27 17:16:00,46.0,43.0,29.58,SSW,202,3.0,7.0,89,0.00,,,0.45,Rainwise IP-100,2013-02-27 22:16:00,
2013-02-27 17:21:00,46.0,43.0,29.58,WSW,247,3.0,6.0,89,0.00,,,0.45,Rainwise IP-100,2013-02-27 22:21:00,
2013-02-27 17:26:00,46.0,43.0,29.58,WSW,247,4.0,6.0,89,0.00,,,0.45,Rainwise IP-100,2013-02-27 22:26:00,
2013-02-27 17:31:00,46.0,43.0,29.60,NW,315,4.0,6.0,89,0.00,,,0.45,Rainwise IP-100,2013-02-27 22:31:00,
2013-02-27 17:36:00,46.0,43.0,29.60,West,270,1.0,8.0,89,0.00,,,0.45,Rainwise IP-100,2013-02-27 22:36:00,
2013-02-27 17:41:00,46.0,43.0,29.60,WSW,247,3.0,7.0,89,0.00,,,0.45,Rainwise IP-100,2013-02-27 22:41:00,
2013-02-27 17:46:00,46.0,43.0,29.60,West,270,3.0,5.0,89,0.00,,,0.45,Rainwise IP-100,2013-02-27 22:46:00,
2013-02-27 17:51:00,45.0,42.0,29.61,SW,225,1.0,5.0,89,0.00,,,0.45,Rainwise IP-100,2013-02-27 22:51:00,
2013-02-27 17:56:00,45.0,42.0,29.61,SW,225,0.0,5.0,90,0.00,,,0.45,Rainwise IP-100,2013-02-27 22:56:00,
2013-02-27 18:01:00,45.0,42.0,29.61,SW,225,0.0,4.0,90,0.00,,,0.45,Rainwise IP-100,2013-02-27 23:01:00,
2013-02-27 18:06:00,45.0,42.0,29.61,SW,225,0.0,3.0,90,0.00,,,0.45,Rainwise IP-100,2013-02-27 23:06:00,
2013-02-27 18:11:00,45.0,42.0,29.62,SW,225,1.0,3.0,90,0.00,,,0.45,Rainwise IP-100,2013-02-27 23:11:00,
2013-02-27 18:16:00,45.0,42.0,29.62,SW,225,1.0,3.0,90,0.00,,,0.45,Rainwise IP-100,2013-02-27 23:16:00,
2013-02-27 18:21:00,45.0,42.0,29.62,SW,225,3.0,3.0,90,0.00,,,0.45,Rainwise IP-100,2013-02-27 23:21:00,
2013-02-27 18:26:00,45.0,42.0,29.62,SW,225,0.0,3.0,90,0.00,,,0.45,Rainwise IP-100,2013-02-27 23:26:00,
2013-02-27 18:31:00,45.0,42.0,29.63,SW,225,1.0,4.0,90,0.00,,,0.45,Rainwise IP-100,2013-02-27 23:31:00,
2013-02-27 18:36:00,45.0,42.0,29.63,SW,225,3.0,3.0,90,0.00,,,0.45,Rainwise IP-100,2013-02-27 23:36:00,
2013-02-27 18:41:00,45.0,42.0,29.63,SW,225,1.0,3.0,90,0.00,,,0.45,Rainwise IP-100,2013-02-27 23:41:00,
2013-02-27 18:46:00,45.0,42.0,29.63,SW,225,1.0,3.0,90,0.00,,,0.45,Rainwise IP-100,2013-02-27 23:46:00,
2013-02-27 18:51:00,45.0,42.0,29.63,SW,225,1.0,3.0,90,0.00,,,0.45,Rainwise IP-100,2013-02-27 23:51:00,
2013-02-27 18:56:00,45.0,42.0,29.63,SW,225,0.0,1.0,90,0.00,,,0.45,Rainwise IP-100,2013-02-27 23:56:00,
2013-02-27 19:01:00,45.0,42.0,29.63,SW,225,0.0,1.0,90,0.00,,,0.45,Rainwise IP-100,2013-02-28 00:01:00,
2013-02-27 19:06:00,45.0,42.0,29.63,SW,225,0.0,1.0,90,0.00,,,0.45,Rainwise IP-100,2013-02-28 00:06:00,
2013-02-27 19:11:00,44.0,41.0,29.63,SW,225,0.0,0.0,90,0.00,,,0.45,Rainwise IP-100,2013-02-28 00:11:00,
2013-02-27 19:16:00,44.0,41.0,29.63,SW,225,1.0,1.0,90,0.00,,,0.45,Rainwise IP-100,2013-02-28 00:16:00,
2013-02-27 19:21:00,44.0,41.0,29.64,SW,225,1.0,2.0,90,0.00,,,0.45,Rainwise IP-100,2013-02-28 00:21:00,
2013-02-27 19:26:00,44.0,41.0,29.64,SW,225,0.0,1.0,90,0.00,,,0.45,Rainwise IP-100,2013-02-28 00:26:00,
2013-02-27 19:31:00,44.0,41.0,29.64,SW,225,0.0,2.0,90,0.00,,,0.45,Rainwise IP-100,2013-02-28 00:31:00,
2013-02-27 19:36:00,44.0,40.0,29.64,SW,225,1.0,2.0,87,0.00,,,0.45,Rainwise IP-100,2013-02-28 00:36:00,
2013-02-27 19:41:00,44.0,41.0,29.63,SW,225,2.0,2.0,90,0.00,,,0.45,Rainwise IP-100,2013-02-28 00:41:00,
2013-02-27 19:46:00,44.0,41.0,29.63,SW,225,0.0,3.0,90,0.00,,,0.45,Rainwise IP-100,2013-02-28 00:46:00,
2013-02-27 19:51:00,44.0,41.0,29.64,SW,225,0.0,2.0,90,0.00,,,0.45,Rainwise IP-100,2013-02-28 00:51:00,
2013-02-27 19:56:00,44.0,41.0,29.64,SW,225,4.0,4.0,90,0.00,,,0.45,Rainwise IP-100,2013-02-28 00:56:00,
2013-02-27 20:01:00,44.0,41.0,29.64,SW,225,2.0,6.0,90,0.00,,,0.45,Rainwise IP-100,2013-02-28 01:01:00,
2013-02-27 20:06:00,44.0,41.0,29.64,SW,225,2.0,3.0,90,0.00,,,0.45,Rainwise IP-100,2013-02-28 01:06:00,
2013-02-27 20:11:00,44.0,41.0,29.64,NNW,337,2.0,4.0,90,0.00,,,0.45,Rainwise IP-100,2013-02-28 01:11:00,
2013-02-27 20:16:00,44.0,41.0,29.64,NW,315,2.0,5.0,90,0.00,,,0.45,Rainwise IP-100,2013-02-28 01:16:00,
2013-02-27 20:21:00,44.0,41.0,29.64,NW,315,0.0,5.0,90,0.00,,,0.45,Rainwise IP-100,2013-02-28 01:21:00,
2013-02-27 20:26:00,44.0,41.0,29.64,NNW,337,1.0,4.0,90,0.00,,,0.45,Rainwise IP-100,2013-02-28 01:26:00,
2013-02-27 20:31:00,44.0,41.0,29.64,SSW,202,2.0,3.0,90,0.00,,,0.45,Rainwise IP-100,2013-02-28 01:31:00,
2013-02-27 20:36:00,43.0,40.0,29.64,SSW,202,2.0,2.0,90,0.00,,,0.45,Rainwise IP-100,2013-02-28 01:36:00,
2013-02-27 20:41:00,43.0,40.0,29.65,SSW,202,0.0,2.0,90,0.00,,,0.45,Rainwise IP-100,2013-02-28 01:41:00,
2013-02-27 20:46:00,43.0,40.0,29.65,SSW,202,1.0,1.0,90,0.00,,,0.45,Rainwise IP-100,2013-02-28 01:46:00,
2013-02-27 20:51:00,43.0,40.0,29.65,SSW,202,2.0,4.0,90,0.00,,,0.45,Rainwise IP-100,2013-02-28 01:51:00,
2013-02-27 20:56:00,43.0,40.0,29.65,SSW,202,0.0,3.0,90,0.00,,,0.45,Rainwise IP-100,2013-02-28 01:56:00,
2013-02-27 21:01:00,43.0,40.0,29.65,SSW,202,1.0,2.0,90,0.00,,,0.45,Rainwise IP-100,2013-02-28 02:01:00,
2013-02-27 21:06:00,43.0,40.0,29.65,SSW,202,1.0,2.0,90,0.00,,,0.45,Rainwise IP-100,2013-02-28 02:06:00,
2013-02-27 21:11:00,42.0,39.0,29.66,SSW,202,2.0,2.0,90,0.00,,,0.45,Rainwise IP-100,2013-02-28 02:11:00,
2013-02-27 21:16:00,42.0,39.0,29.66,SSW,202,2.0,2.0,88,0.00,,,0.45,Rainwise IP-100,2013-02-28 02:16:00,
2013-02-27 21:21:00,42.0,39.0,29.66,SSW,202,2.0,3.0,89,0.00,,,0.45,Rainwise IP-100,2013-02-28 02:21:00,
2013-02-27 21:26:00,42.0,39.0,29.66,SSW,202,0.0,2.0,88,0.00,,,0.45,Rainwise IP-100,2013-02-28 02:26:00,
2013-02-27 21:31:00,42.0,39.0,29.66,SSW,202,3.0,3.0,88,0.00,,,0.45,Rainwise IP-100,2013-02-28 02:31:00,
2013-02-27 21:36:00,42.0,39.0,29.66,SW,225,2.0,6.0,89,0.00,,,0.45,Rainwise IP-100,2013-02-28 02:36:00,
2013-02-27 21:41:00,43.0,40.0,29.65,SW,225,1.0,2.0,90,0.00,,,0.45,Rainwise IP-100,2013-02-28 02:41:00,
2013-02-27 21:46:00,43.0,40.0,29.65,SW,225,0.0,2.0,90,0.00,,,0.45,Rainwise IP-100,2013-02-28 02:46:00,
2013-02-27 21:51:00,42.0,39.0,29.65,SSW,202,0.0,2.0,89,0.00,,,0.45,Rainwise IP-100,2013-02-28 02:51:00,
2013-02-27 21:56:00,42.0,39.0,29.65,SSW,202,0.0,0.0,89,0.00,,,0.45,Rainwise IP-100,2013-02-28 02:56:00,
2013-02-27 22:01:00,42.0,39.0,29.65,SSW,202,2.0,2.0,89,0.00,,,0.45,Rainwise IP-100,2013-02-28 03:01:00,
2013-02-27 22:06:00,42.0,39.0,29.65,SSW,202,3.0,3.0,89,0.00,,,0.45,Rainwise IP-100,2013-02-28 03:06:00,
2013-02-27 22:11:00,42.0,39.0,29.65,SSW,202,1.0,4.0,89,0.00,,,0.45,Rainwise IP-100,2013-02-28 03:11:00,
2013-02-27 22:16:00,42.0,39.0,29.65,South,180,1.0,2.0,89,0.00,,,0.45,Rainwise IP-100,2013-02-28 03:16:00,
2013-02-27 22:21:00,42.0,39.0,29.65,South,180,2.0,2.0,89,0.00,,,0.45,Rainwise IP-100,2013-02-28 03:21:00,
2013-02-27 22:26:00,42.0,39.0,29.65,South,180,1.0,2.0,89,0.00,,,0.45,Rainwise IP-100,2013-02-28 03:26:00,
2013-02-27 22:31:00,42.0,39.0,29.65,South,180,0.0,1.0,89,0.00,,,0.45,Rainwise IP-100,2013-02-28 03:31:00,
2013-02-27 22:36:00,42.0,39.0,29.65,South,180,0.0,0.0,89,0.00,,,0.45,Rainwise IP-100,2013-02-28 03:36:00,
2013-02-27 22:41:00,42.0,39.0,29.65,South,180,0.0,0.0,89,0.00,,,0.45,Rainwise IP-100,2013-02-28 03:41:00,
2013-02-27 22:46:00,42.0,39.0,29.65,South,180,0.0,0.0,89,0.00,,,0.45,Rainwise IP-100,2013-02-28 03:46:00,
2013-02-27 22:51:00,42.0,39.0,29.64,South,180,0.0,0.0,89,0.00,,,0.45,Rainwise IP-100,2013-02-28 03:51:00,
2013-02-27 22:56:00,42.0,39.0,29.64,South,180,0.0,0.0,89,0.00,,,0.45,Rainwise IP-100,2013-02-28 03:56:00,
2013-02-27 23:01:00,42.0,39.0,29.64,South,180,1.0,1.0,89,0.00,,,0.45,Rainwise IP-100,2013-02-28 04:01:00,
2013-02-27 23:06:00,42.0,39.0,29.64,South,180,0.0,1.0,89,0.00,,,0.45,Rainwise IP-100,2013-02-28 04:06:00,
2013-02-27 23:11:00,42.0,39.0,29.64,South,180,0.0,0.0,89,0.00,,,0.45,Rainwise IP-100,2013-02-28 04:11:00,
2013-02-27 23:16:00,42.0,39.0,29.64,South,180,0.0,1.0,88,0.00,,,0.45,Rainwise IP-100,2013-02-28 04:16:00,
2013-02-27 23:21:00,42.0,39.0,29.64,South,180,0.0,0.0,89,0.00,,,0.45,Rainwise IP-100,2013-02-28 04:21:00,
2013-02-27 23:26:00,41.0,38.0,29.64,South,180,0.0,0.0,89,0.00,,,0.45,Rainwise IP-100,2013-02-28 04:26:00,
2013-02-27 23:31:00,41.0,38.0,29.64,South,180,0.0,0.0,88,0.00,,,0.45,Rainwise IP-100,2013-02-28 04:31:00,
2013-02-27 23:36:00,41.0,38.0,29.64,South,180,0.0,0.0,88,0.00,,,0.45,Rainwise IP-100,2013-02-28 04:36:00,
2013-02-27 23:41:00,41.0,38.0,29.64,South,180,0.0,0.0,88,0.00,,,0.45,Rainwise IP-100,2013-02-28 04:41:00,
2013-02-27 23:46:00,41.0,38.0,29.64,South,180,0.0,0.0,88,0.00,,,0.45,Rainwise IP-100,2013-02-28 04:46:00,
2013-02-27 23:51:00,41.0,38.0,29.64,South,180,0.0,0.0,88,0.00,,,0.45,Rainwise IP-100,2013-02-28 04:51:00,
2013-02-27 23:56:00,41.0,38.0,29.64,South,180,0.0,0.0,88,0.00,,,0.45,Rainwise IP-100,2013-02-28 04:56:00,